Location: Birkenwerder
(52.6919°N, 13.2774°E)
Time: 23:56:58
(UTC+00:00)

Cosmos 1570 Rocket - Pass Details

Date: 10 October 2020
Orbit: 763 x 788 km, 74.1° (Epoch: 24 October)

Event Time Altitude Azimuth Distance (km) Brightness Sun altitude
Exits shadow 00:33:25 21° 33° (NNE) 1,711 6.3 -39.8°
Drops below altitude 10° 00:35:10 10° 29° (NNE) 2,363 7.2 -39.6°
Sets 00:37:35 0° 28° (NNE) 3,295 8.2 -39.4°
